Year,Month,Day,Hour,Minute,Value (Times are PST for windspeed in km/hr)
2020,09,07,00,00,0.00
2020,09,07,00,01,0.00
2020,09,07,00,02,0.00
2020,09,07,00,03,0.00
2020,09,07,00,04,0.00
2020,09,07,00,05,0.00
2020,09,07,00,06,0.00
2020,09,07,00,07,0.00
2020,09,07,00,08,0.00
2020,09,07,00,09,0.00
2020,09,07,00,10,0.00
2020,09,07,00,11,0.00
2020,09,07,00,12,0.00
2020,09,07,00,13,0.00
2020,09,07,00,14,0.00
2020,09,07,00,15,0.00
2020,09,07,00,16,0.00
2020,09,07,00,17,0.00
2020,09,07,00,18,0.00
2020,09,07,00,19,0.00
2020,09,07,00,20,0.00
2020,09,07,00,21,0.00
2020,09,07,00,22,0.00
2020,09,07,00,23,0.00
2020,09,07,00,24,0.00
2020,09,07,00,25,0.00
2020,09,07,00,26,0.00
2020,09,07,00,27,0.00
2020,09,07,00,28,0.00
2020,09,07,00,29,0.00
2020,09,07,00,30,0.00
2020,09,07,00,31,0.00
2020,09,07,00,32,0.00
2020,09,07,00,33,0.00
2020,09,07,00,34,0.00
2020,09,07,00,35,0.00
2020,09,07,00,36,0.00
2020,09,07,00,37,0.00
2020,09,07,00,38,0.00
2020,09,07,00,39,0.00
2020,09,07,00,40,0.00
2020,09,07,00,41,0.00
2020,09,07,00,42,0.00
2020,09,07,00,43,0.00
2020,09,07,00,44,0.00
2020,09,07,00,45,0.00
2020,09,07,00,46,0.00
2020,09,07,00,47,0.00
2020,09,07,00,48,0.00
2020,09,07,00,49,0.00
2020,09,07,00,50,0.00
2020,09,07,00,51,0.00
2020,09,07,00,52,0.00
2020,09,07,00,53,0.00
2020,09,07,00,54,0.00
2020,09,07,00,55,0.00
2020,09,07,00,56,0.00
2020,09,07,00,57,0.00
2020,09,07,00,58,0.00
2020,09,07,00,59,0.00
2020,09,07,01,00,0.00
2020,09,07,01,01,0.00
2020,09,07,01,02,0.00
2020,09,07,01,03,0.00
2020,09,07,01,04,0.00
2020,09,07,01,05,0.00
2020,09,07,01,06,0.00
2020,09,07,01,07,0.00
2020,09,07,01,08,0.00
2020,09,07,01,09,0.00
2020,09,07,01,10,0.00
2020,09,07,01,11,0.00
2020,09,07,01,12,0.00
2020,09,07,01,13,0.00
2020,09,07,01,14,0.00
2020,09,07,01,15,0.00
2020,09,07,01,16,0.00
2020,09,07,01,17,0.00
2020,09,07,01,18,0.00
2020,09,07,01,19,0.00
2020,09,07,01,20,0.00
2020,09,07,01,21,0.00
2020,09,07,01,22,0.00
2020,09,07,01,23,0.00
2020,09,07,01,24,0.00
2020,09,07,01,25,0.00
2020,09,07,01,26,0.00
2020,09,07,01,27,0.00
2020,09,07,01,28,0.00
2020,09,07,01,29,0.00
2020,09,07,01,30,0.00
2020,09,07,01,31,0.00
2020,09,07,01,32,0.00
2020,09,07,01,33,0.00
2020,09,07,01,34,0.00
2020,09,07,01,35,0.00
2020,09,07,01,36,0.00
2020,09,07,01,37,0.00
2020,09,07,01,38,0.00
2020,09,07,01,39,0.00
2020,09,07,01,40,0.00
2020,09,07,01,41,0.00
2020,09,07,01,42,0.00
2020,09,07,01,43,0.00
2020,09,07,01,44,0.00
2020,09,07,01,45,0.00
2020,09,07,01,46,0.00
2020,09,07,01,47,0.00
2020,09,07,01,48,0.00
2020,09,07,01,49,0.00
2020,09,07,01,50,0.00
2020,09,07,01,51,0.00
2020,09,07,01,52,0.00
2020,09,07,01,53,0.00
2020,09,07,01,54,0.00
2020,09,07,01,55,0.00
2020,09,07,01,56,0.00
2020,09,07,01,57,0.00
2020,09,07,01,58,0.00
2020,09,07,01,59,0.00
2020,09,07,02,00,0.00
2020,09,07,02,01,0.00
2020,09,07,02,02,0.00
2020,09,07,02,03,0.00
2020,09,07,02,04,0.00
2020,09,07,02,05,0.00
2020,09,07,02,06,0.00
2020,09,07,02,07,0.00
2020,09,07,02,08,0.00
2020,09,07,02,09,0.00
2020,09,07,02,10,0.00
2020,09,07,02,11,0.00
2020,09,07,02,12,0.00
2020,09,07,02,13,0.00
2020,09,07,02,14,0.00
2020,09,07,02,15,0.00
2020,09,07,02,16,0.00
2020,09,07,02,17,0.00
2020,09,07,02,18,0.00
2020,09,07,02,19,0.00
2020,09,07,02,20,0.00
2020,09,07,02,21,0.00
2020,09,07,02,22,0.00
2020,09,07,02,23,0.00
2020,09,07,02,24,0.00
2020,09,07,02,25,0.00
2020,09,07,02,26,0.00
2020,09,07,02,27,0.00
2020,09,07,02,28,0.00
2020,09,07,02,29,0.00
2020,09,07,02,30,0.00
2020,09,07,02,31,0.00
2020,09,07,02,32,0.00
2020,09,07,02,33,0.00
2020,09,07,02,34,0.00
2020,09,07,02,35,0.00
2020,09,07,02,36,0.00
2020,09,07,02,37,0.00
2020,09,07,02,38,0.00
2020,09,07,02,39,0.00
2020,09,07,02,40,0.00
2020,09,07,02,41,0.00
2020,09,07,02,42,0.00
2020,09,07,02,43,0.00
2020,09,07,02,44,0.00
2020,09,07,02,45,0.00
2020,09,07,02,46,0.00
2020,09,07,02,47,0.00
2020,09,07,02,48,0.00
2020,09,07,02,49,0.00
2020,09,07,02,50,0.00
2020,09,07,02,51,0.00
2020,09,07,02,52,0.00
2020,09,07,02,53,0.00
2020,09,07,02,54,0.00
2020,09,07,02,55,0.00
2020,09,07,02,56,0.00
2020,09,07,02,57,0.00
2020,09,07,02,58,0.00
2020,09,07,02,59,0.00
2020,09,07,03,00,0.00
2020,09,07,03,01,0.00
2020,09,07,03,02,0.00
2020,09,07,03,03,0.00
2020,09,07,03,04,0.00
2020,09,07,03,05,0.00
2020,09,07,03,06,0.00
2020,09,07,03,07,0.00
2020,09,07,03,08,0.00
2020,09,07,03,09,0.00
2020,09,07,03,10,0.00
2020,09,07,03,11,0.00
2020,09,07,03,12,0.00
2020,09,07,03,13,0.00
2020,09,07,03,14,0.00
2020,09,07,03,15,0.00
2020,09,07,03,16,0.00
2020,09,07,03,17,0.00
2020,09,07,03,18,0.00
2020,09,07,03,19,0.00
2020,09,07,03,20,0.00
2020,09,07,03,21,0.00
2020,09,07,03,22,0.00
2020,09,07,03,23,0.00
2020,09,07,03,24,0.00
2020,09,07,03,25,0.00
2020,09,07,03,26,0.00
2020,09,07,03,27,0.00
2020,09,07,03,28,0.00
2020,09,07,03,29,0.00
2020,09,07,03,30,0.00
2020,09,07,03,31,0.00
2020,09,07,03,32,0.00
2020,09,07,03,33,0.00
2020,09,07,03,34,0.00
2020,09,07,03,35,0.00
2020,09,07,03,36,0.00
2020,09,07,03,37,0.00
2020,09,07,03,38,0.00
2020,09,07,03,39,0.00
2020,09,07,03,40,0.00
2020,09,07,03,41,0.00
2020,09,07,03,42,0.00
2020,09,07,03,43,0.00
2020,09,07,03,44,0.00
2020,09,07,03,45,0.00
2020,09,07,03,46,0.00
2020,09,07,03,47,0.00
2020,09,07,03,48,0.00
2020,09,07,03,49,0.00
2020,09,07,03,50,0.00
2020,09,07,03,51,0.00
2020,09,07,03,52,0.00
2020,09,07,03,53,0.00
2020,09,07,03,54,0.00
2020,09,07,03,55,0.00
2020,09,07,03,56,0.00
2020,09,07,03,57,0.00
2020,09,07,03,58,0.00
2020,09,07,03,59,0.00
2020,09,07,04,00,0.00
2020,09,07,04,01,0.00
2020,09,07,04,02,0.00
2020,09,07,04,03,0.00
2020,09,07,04,04,0.00
2020,09,07,04,05,0.00
2020,09,07,04,06,0.00
2020,09,07,04,07,0.00
2020,09,07,04,08,0.00
2020,09,07,04,09,0.00
2020,09,07,04,10,0.00
2020,09,07,04,11,0.00
2020,09,07,04,12,0.00
2020,09,07,04,13,0.00
2020,09,07,04,14,0.00
2020,09,07,04,15,0.00
2020,09,07,04,16,0.00
2020,09,07,04,17,0.00
2020,09,07,04,18,0.00
2020,09,07,04,19,0.00
2020,09,07,04,20,0.00
2020,09,07,04,21,0.00
2020,09,07,04,22,0.00
2020,09,07,04,23,0.00
2020,09,07,04,24,0.00
2020,09,07,04,25,0.00
2020,09,07,04,26,0.00
2020,09,07,04,27,0.00
2020,09,07,04,28,0.00
2020,09,07,04,29,0.00
2020,09,07,04,30,0.00
2020,09,07,04,31,0.00
2020,09,07,04,32,0.00
2020,09,07,04,33,0.00
2020,09,07,04,34,0.00
2020,09,07,04,35,0.00
2020,09,07,04,36,0.00
2020,09,07,04,37,0.00
2020,09,07,04,38,0.00
2020,09,07,04,39,0.00
2020,09,07,04,40,0.00
2020,09,07,04,41,0.00
2020,09,07,04,42,0.00
2020,09,07,04,43,0.00
2020,09,07,04,44,0.00
2020,09,07,04,45,0.00
2020,09,07,04,46,0.00
2020,09,07,04,47,0.00
2020,09,07,04,48,0.00
2020,09,07,04,49,0.00
2020,09,07,04,50,0.00
2020,09,07,04,51,0.00
2020,09,07,04,52,0.00
2020,09,07,04,53,0.00
2020,09,07,04,54,0.00
2020,09,07,04,55,0.00
2020,09,07,04,56,0.00
2020,09,07,04,57,0.00
2020,09,07,04,58,0.00
2020,09,07,04,59,0.00
2020,09,07,05,00,0.00
2020,09,07,05,01,0.00
2020,09,07,05,02,0.00
2020,09,07,05,03,0.00
2020,09,07,05,04,0.00
2020,09,07,05,05,0.00
2020,09,07,05,06,0.00
2020,09,07,05,07,0.00
2020,09,07,05,08,0.00
2020,09,07,05,09,0.00
2020,09,07,05,10,0.00
2020,09,07,05,11,0.00
2020,09,07,05,12,0.00
2020,09,07,05,13,0.00
2020,09,07,05,14,0.00
2020,09,07,05,15,0.00
2020,09,07,05,16,0.00
2020,09,07,05,17,0.00
2020,09,07,05,18,0.00
2020,09,07,05,19,0.00
2020,09,07,05,20,0.00
2020,09,07,05,21,0.00
2020,09,07,05,22,0.00
2020,09,07,05,23,0.00
2020,09,07,05,24,0.00
2020,09,07,05,25,0.00
2020,09,07,05,26,0.00
2020,09,07,05,27,0.00
2020,09,07,05,28,0.00
2020,09,07,05,29,0.00
2020,09,07,05,30,0.00
2020,09,07,05,31,0.00
2020,09,07,05,32,0.00
2020,09,07,05,33,0.00
2020,09,07,05,34,0.00
2020,09,07,05,35,0.00
2020,09,07,05,36,0.00
2020,09,07,05,37,0.00
2020,09,07,05,38,0.00
2020,09,07,05,39,0.00
2020,09,07,05,40,0.00
2020,09,07,05,41,0.00
2020,09,07,05,42,0.00
2020,09,07,05,43,0.00
2020,09,07,05,44,0.00
2020,09,07,05,45,0.00
2020,09,07,05,46,0.00
2020,09,07,05,47,0.00
2020,09,07,05,48,0.00
2020,09,07,05,49,0.00
2020,09,07,05,50,0.00
2020,09,07,05,51,0.00
2020,09,07,05,52,0.00
2020,09,07,05,53,0.00
2020,09,07,05,54,0.00
2020,09,07,05,55,0.00
2020,09,07,05,56,0.00
2020,09,07,05,57,0.00
2020,09,07,05,58,0.00
2020,09,07,05,59,0.00
2020,09,07,06,00,0.00
2020,09,07,06,01,0.00
2020,09,07,06,02,0.00
2020,09,07,06,03,0.00
2020,09,07,06,04,0.00
2020,09,07,06,05,0.00
2020,09,07,06,06,0.00
2020,09,07,06,07,0.00
2020,09,07,06,08,0.00
2020,09,07,06,09,0.00
2020,09,07,06,10,0.00
2020,09,07,06,11,0.00
2020,09,07,06,12,0.00
2020,09,07,06,13,0.00
2020,09,07,06,14,0.00
2020,09,07,06,15,0.00
2020,09,07,06,16,0.00
2020,09,07,06,17,0.00
2020,09,07,06,18,0.00
2020,09,07,06,19,0.00
2020,09,07,06,20,0.00
2020,09,07,06,21,0.00
2020,09,07,06,22,0.00
2020,09,07,06,23,0.00
2020,09,07,06,24,0.00
2020,09,07,06,25,0.00
2020,09,07,06,26,0.00
2020,09,07,06,27,0.00
2020,09,07,06,28,0.00
2020,09,07,06,29,0.00
2020,09,07,06,30,0.00
2020,09,07,06,31,0.00
2020,09,07,06,32,0.00
2020,09,07,06,33,0.00
2020,09,07,06,34,0.00
2020,09,07,06,35,0.00
2020,09,07,06,36,0.00
2020,09,07,06,37,0.00
2020,09,07,06,38,0.00
2020,09,07,06,39,0.00
2020,09,07,06,40,0.00
2020,09,07,06,41,0.00
2020,09,07,06,42,0.00
2020,09,07,06,43,0.00
2020,09,07,06,44,0.00
2020,09,07,06,45,0.00
2020,09,07,06,46,0.00
2020,09,07,06,47,0.00
2020,09,07,06,48,0.00
2020,09,07,06,49,0.00
2020,09,07,06,50,0.00
2020,09,07,06,51,0.00
2020,09,07,06,52,0.00
2020,09,07,06,53,0.00
2020,09,07,06,54,0.00
2020,09,07,06,55,0.00
2020,09,07,06,56,0.00
2020,09,07,06,57,0.00
2020,09,07,06,58,0.00
2020,09,07,06,59,0.00
2020,09,07,07,00,0.00
2020,09,07,07,01,0.00
2020,09,07,07,02,0.00
2020,09,07,07,03,0.00
2020,09,07,07,04,0.00
2020,09,07,07,05,0.00
2020,09,07,07,06,0.00
2020,09,07,07,07,0.00
2020,09,07,07,08,0.00
2020,09,07,07,09,0.00
2020,09,07,07,10,0.00
2020,09,07,07,11,0.00
2020,09,07,07,12,0.00
2020,09,07,07,13,0.00
2020,09,07,07,14,0.00
2020,09,07,07,15,0.00
2020,09,07,07,16,0.00
2020,09,07,07,17,0.00
2020,09,07,07,18,0.00
2020,09,07,07,19,0.00
2020,09,07,07,20,0.00
2020,09,07,07,21,0.00
2020,09,07,07,22,0.00
2020,09,07,07,23,0.00
2020,09,07,07,24,0.00
2020,09,07,07,25,0.00
2020,09,07,07,26,0.00
2020,09,07,07,27,0.00
2020,09,07,07,28,0.00
2020,09,07,07,29,0.00
2020,09,07,07,30,0.00
2020,09,07,07,31,0.00
2020,09,07,07,32,0.00
2020,09,07,07,33,0.00
2020,09,07,07,34,0.00
2020,09,07,07,35,0.00
2020,09,07,07,36,0.00
2020,09,07,07,37,0.00
2020,09,07,07,38,0.00
2020,09,07,07,39,0.00
2020,09,07,07,40,0.00
2020,09,07,07,41,0.00
2020,09,07,07,42,0.00
2020,09,07,07,43,0.00
2020,09,07,07,44,0.00
2020,09,07,07,45,0.00
2020,09,07,07,46,0.00
2020,09,07,07,47,0.00
2020,09,07,07,48,0.00
2020,09,07,07,49,0.00
2020,09,07,07,50,0.00
2020,09,07,07,51,0.00
2020,09,07,07,52,0.00
2020,09,07,07,53,0.00
2020,09,07,07,54,0.00
2020,09,07,07,55,0.00
2020,09,07,07,56,0.00
2020,09,07,07,57,0.00
2020,09,07,07,58,0.00
2020,09,07,07,59,0.00
2020,09,07,08,00,0.00
2020,09,07,08,01,0.00
2020,09,07,08,02,0.00
2020,09,07,08,03,0.00
2020,09,07,08,04,0.00
2020,09,07,08,05,0.00
2020,09,07,08,06,0.00
2020,09,07,08,07,0.00
2020,09,07,08,08,0.00
2020,09,07,08,09,0.00
2020,09,07,08,10,0.00
2020,09,07,08,11,0.00
2020,09,07,08,12,0.00
2020,09,07,08,13,0.00
2020,09,07,08,14,0.00
2020,09,07,08,15,0.00
2020,09,07,08,16,0.00
2020,09,07,08,17,0.00
2020,09,07,08,18,0.00
2020,09,07,08,19,0.00
2020,09,07,08,20,0.00
2020,09,07,08,21,0.00
2020,09,07,08,22,0.00
2020,09,07,08,23,0.00
2020,09,07,08,24,0.00
2020,09,07,08,25,0.00
2020,09,07,08,26,0.00
2020,09,07,08,27,0.00
2020,09,07,08,28,0.00
2020,09,07,08,29,0.00
2020,09,07,08,30,0.00
2020,09,07,08,31,0.00
2020,09,07,08,32,0.00
2020,09,07,08,33,0.00
2020,09,07,08,34,0.00
2020,09,07,08,35,0.00
2020,09,07,08,36,0.00
2020,09,07,08,37,0.00
2020,09,07,08,38,0.00
2020,09,07,08,39,0.00
2020,09,07,08,40,0.00
2020,09,07,08,41,0.00
2020,09,07,08,42,0.00
2020,09,07,08,43,0.00
2020,09,07,08,44,0.00
2020,09,07,08,45,0.00
2020,09,07,08,46,0.00
2020,09,07,08,47,0.00
2020,09,07,08,48,0.00
2020,09,07,08,49,0.00
2020,09,07,08,50,0.00
2020,09,07,08,51,0.00
2020,09,07,08,52,0.00
2020,09,07,08,53,0.00
2020,09,07,08,54,0.00
2020,09,07,08,55,0.00
2020,09,07,08,56,0.10
2020,09,07,08,57,0.00
2020,09,07,08,58,2.90
2020,09,07,08,59,7.50
2020,09,07,09,00,6.40
2020,09,07,09,01,13.70
2020,09,07,09,02,9.80
2020,09,07,09,03,6.80
2020,09,07,09,04,5.40
2020,09,07,09,05,6.70
2020,09,07,09,06,4.80
2020,09,07,09,07,3.10
2020,09,07,09,08,9.20
2020,09,07,09,09,7.00
2020,09,07,09,10,5.40
2020,09,07,09,11,0.00
2020,09,07,09,12,6.30
2020,09,07,09,13,9.80
2020,09,07,09,14,11.10
2020,09,07,09,15,9.30
2020,09,07,09,16,8.90
2020,09,07,09,17,7.00
2020,09,07,09,18,11.70
2020,09,07,09,19,11.30
2020,09,07,09,20,11.10
2020,09,07,09,21,10.30
2020,09,07,09,22,14.80
2020,09,07,09,23,12.50
2020,09,07,09,24,9.30
2020,09,07,09,25,6.80
2020,09,07,09,26,11.60
2020,09,07,09,27,10.80
2020,09,07,09,28,7.90
2020,09,07,09,29,1.00
2020,09,07,09,30,8.20
2020,09,07,09,31,8.90
2020,09,07,09,32,7.70
2020,09,07,09,33,7.70
2020,09,07,09,34,8.30
2020,09,07,09,35,12.00
2020,09,07,09,36,11.70
2020,09,07,09,37,11.70
2020,09,07,09,38,11.50
2020,09,07,09,39,11.00
2020,09,07,09,40,10.50
2020,09,07,09,41,9.40
2020,09,07,09,42,8.70
2020,09,07,09,43,12.50
2020,09,07,09,44,17.30
2020,09,07,09,45,17.00
2020,09,07,09,46,14.10
2020,09,07,09,47,11.80
2020,09,07,09,48,9.50
2020,09,07,09,49,11.10
2020,09,07,09,50,14.30
2020,09,07,09,51,15.30
2020,09,07,09,52,11.10
2020,09,07,09,53,9.90
2020,09,07,09,54,8.60
2020,09,07,09,55,6.70
2020,09,07,09,56,13.10
2020,09,07,09,57,14.20
2020,09,07,09,58,9.00
2020,09,07,09,59,5.00
2020,09,07,10,00,11.30
2020,09,07,10,01,8.50
2020,09,07,10,02,5.10
2020,09,07,10,03,11.50
2020,09,07,10,04,14.10
2020,09,07,10,05,12.40
2020,09,07,10,06,11.50
2020,09,07,10,07,9.50
2020,09,07,10,08,10.00
2020,09,07,10,09,6.20
2020,09,07,10,10,11.00
2020,09,07,10,11,9.70
2020,09,07,10,12,10.80
2020,09,07,10,13,11.50
2020,09,07,10,14,14.90
2020,09,07,10,15,10.80
2020,09,07,10,16,11.80
2020,09,07,10,17,12.90
2020,09,07,10,18,11.90
2020,09,07,10,19,13.60
2020,09,07,10,20,11.90
2020,09,07,10,21,11.40
2020,09,07,10,22,14.70
2020,09,07,10,23,10.50
2020,09,07,10,24,13.90
2020,09,07,10,25,11.00
2020,09,07,10,26,11.80
2020,09,07,10,27,10.70
2020,09,07,10,28,10.60
2020,09,07,10,29,8.00
2020,09,07,10,30,6.90
2020,09,07,10,31,11.70
2020,09,07,10,32,10.70
2020,09,07,10,33,11.00
2020,09,07,10,34,12.70
2020,09,07,10,35,11.90
2020,09,07,10,36,10.10
2020,09,07,10,37,12.10
2020,09,07,10,38,7.40
2020,09,07,10,39,10.40
2020,09,07,10,40,9.10
2020,09,07,10,41,15.10
2020,09,07,10,42,15.50
2020,09,07,10,43,16.90
2020,09,07,10,44,10.60
2020,09,07,10,45,13.40
2020,09,07,10,46,21.80
2020,09,07,10,47,17.30
2020,09,07,10,48,13.00
2020,09,07,10,49,11.80
2020,09,07,10,50,8.00
2020,09,07,10,51,8.70
2020,09,07,10,52,2.10
2020,09,07,10,53,5.10
2020,09,07,10,54,11.80
2020,09,07,10,55,13.40
2020,09,07,10,56,14.00
2020,09,07,10,57,17.30
2020,09,07,10,58,17.80
2020,09,07,10,59,19.50
2020,09,07,11,00,13.70
2020,09,07,11,01,7.80
2020,09,07,11,02,10.50
2020,09,07,11,03,8.90
2020,09,07,11,04,18.20
2020,09,07,11,05,14.30
2020,09,07,11,06,13.60
2020,09,07,11,07,16.20
2020,09,07,11,08,15.90
2020,09,07,11,09,11.60
2020,09,07,11,10,15.20
2020,09,07,11,11,12.40
2020,09,07,11,12,12.30
2020,09,07,11,13,8.60
2020,09,07,11,14,6.80
2020,09,07,11,15,6.20
2020,09,07,11,16,15.40
2020,09,07,11,17,13.20
2020,09,07,11,18,13.80
2020,09,07,11,19,5.90
2020,09,07,11,20,9.70
2020,09,07,11,21,12.40
2020,09,07,11,22,9.60
2020,09,07,11,23,8.60
2020,09,07,11,24,8.00
2020,09,07,11,25,6.30
2020,09,07,11,26,6.30
2020,09,07,11,27,4.80
2020,09,07,11,28,7.60
2020,09,07,11,29,7.10
2020,09,07,11,30,15.20
2020,09,07,11,31,15.70
2020,09,07,11,32,19.60
2020,09,07,11,33,10.30
2020,09,07,11,34,5.90
2020,09,07,11,35,6.40
2020,09,07,11,36,8.50
2020,09,07,11,37,5.20
2020,09,07,11,38,7.90
2020,09,07,11,39,11.10
2020,09,07,11,40,21.60
2020,09,07,11,41,19.40
2020,09,07,11,42,14.70
2020,09,07,11,43,11.80
2020,09,07,11,44,10.60
2020,09,07,11,45,15.70
2020,09,07,11,46,20.00
2020,09,07,11,47,18.20
2020,09,07,11,48,13.20
2020,09,07,11,49,12.80
2020,09,07,11,50,5.70
2020,09,07,11,51,9.00
2020,09,07,11,52,7.20
2020,09,07,11,53,15.60
2020,09,07,11,54,8.50
2020,09,07,11,55,6.00
2020,09,07,11,56,5.60
2020,09,07,11,57,16.50
2020,09,07,11,58,14.80
2020,09,07,11,59,6.80
2020,09,07,12,00,19.50
2020,09,07,12,01,23.30
2020,09,07,12,02,14.30
2020,09,07,12,03,14.80
2020,09,07,12,04,20.40
2020,09,07,12,05,12.50
2020,09,07,12,06,5.70
2020,09,07,12,07,10.40
2020,09,07,12,08,10.50
2020,09,07,12,09,13.40
2020,09,07,12,10,5.50
2020,09,07,12,11,9.70
2020,09,07,12,12,8.70
2020,09,07,12,13,14.30
2020,09,07,12,14,21.40
2020,09,07,12,15,8.60
2020,09,07,12,16,9.40
2020,09,07,12,17,13.10
2020,09,07,12,18,16.20
2020,09,07,12,19,13.20
2020,09,07,12,20,14.70
2020,09,07,12,21,15.50
2020,09,07,12,22,10.80
2020,09,07,12,23,10.40
2020,09,07,12,24,15.90
2020,09,07,12,25,12.70
2020,09,07,12,26,12.60
2020,09,07,12,27,7.50
2020,09,07,12,28,7.40
2020,09,07,12,29,2.80
2020,09,07,12,30,13.00
2020,09,07,12,31,13.20
2020,09,07,12,32,15.80
2020,09,07,12,33,13.90
2020,09,07,12,34,16.90
2020,09,07,12,35,23.80
2020,09,07,12,36,25.70
2020,09,07,12,37,21.10
2020,09,07,12,38,15.40
2020,09,07,12,39,22.90
2020,09,07,12,40,14.60
2020,09,07,12,41,13.50
2020,09,07,12,42,18.40
2020,09,07,12,43,16.90
2020,09,07,12,44,14.00
2020,09,07,12,45,9.00
2020,09,07,12,46,11.50
2020,09,07,12,47,9.70
2020,09,07,12,48,17.00
2020,09,07,12,49,18.30
2020,09,07,12,50,13.80
2020,09,07,12,51,11.60
2020,09,07,12,52,12.70
2020,09,07,12,53,14.90
2020,09,07,12,54,12.50
2020,09,07,12,55,20.40
2020,09,07,12,56,18.20
2020,09,07,12,57,23.30
2020,09,07,12,58,15.30
2020,09,07,12,59,17.80
2020,09,07,13,00,18.90
2020,09,07,13,01,24.10
2020,09,07,13,02,19.20
2020,09,07,13,03,24.10
2020,09,07,13,04,24.40
2020,09,07,13,05,22.30
2020,09,07,13,06,22.70
2020,09,07,13,07,25.70
2020,09,07,13,08,30.00
2020,09,07,13,09,24.10
2020,09,07,13,10,20.30
2020,09,07,13,11,19.90
2020,09,07,13,12,13.10
2020,09,07,13,13,7.40
2020,09,07,13,14,25.50
2020,09,07,13,15,19.40
2020,09,07,13,16,21.60
2020,09,07,13,17,16.50
2020,09,07,13,18,8.20
2020,09,07,13,19,9.40
2020,09,07,13,20,16.70
2020,09,07,13,21,12.60
2020,09,07,13,22,13.70
2020,09,07,13,23,14.80
2020,09,07,13,24,17.80
2020,09,07,13,25,16.30
2020,09,07,13,26,14.10
2020,09,07,13,27,17.40
2020,09,07,13,28,26.50
2020,09,07,13,29,23.20
2020,09,07,13,30,20.50
2020,09,07,13,31,23.90
2020,09,07,13,32,24.60
2020,09,07,13,33,23.70
2020,09,07,13,34,23.10
2020,09,07,13,35,19.20
2020,09,07,13,36,23.80
2020,09,07,13,37,8.90
2020,09,07,13,38,14.80
2020,09,07,13,39,19.50
2020,09,07,13,40,13.70
2020,09,07,13,41,21.90
2020,09,07,13,42,24.60
2020,09,07,13,43,6.00
2020,09,07,13,44,17.80
2020,09,07,13,45,11.20
2020,09,07,13,46,6.10
2020,09,07,13,47,16.00
2020,09,07,13,48,16.20
2020,09,07,13,49,4.60
2020,09,07,13,50,13.80
2020,09,07,13,51,26.00
2020,09,07,13,52,17.80
2020,09,07,13,53,14.50
2020,09,07,13,54,19.50
2020,09,07,13,55,19.20
2020,09,07,13,56,13.60
2020,09,07,13,57,14.30
2020,09,07,13,58,26.10
2020,09,07,13,59,23.00
2020,09,07,14,00,10.80
2020,09,07,14,01,7.00
2020,09,07,14,02,15.50
2020,09,07,14,03,13.10
2020,09,07,14,04,10.20
2020,09,07,14,05,25.20
2020,09,07,14,06,27.40
2020,09,07,14,07,23.70
2020,09,07,14,08,16.10
2020,09,07,14,09,17.90
2020,09,07,14,10,26.50
2020,09,07,14,11,17.90
2020,09,07,14,12,21.30
2020,09,07,14,13,25.70
2020,09,07,14,14,20.60
2020,09,07,14,15,18.40
2020,09,07,14,16,26.70
2020,09,07,14,17,26.90
2020,09,07,14,18,20.40
2020,09,07,14,19,14.80
2020,09,07,14,20,20.50
2020,09,07,14,21,17.60
2020,09,07,14,22,15.90
2020,09,07,14,23,23.80
2020,09,07,14,24,19.10
2020,09,07,14,25,13.90
2020,09,07,14,26,17.80
2020,09,07,14,27,15.90
2020,09,07,14,28,19.20
2020,09,07,14,29,25.40
2020,09,07,14,30,15.50
2020,09,07,14,31,24.10
2020,09,07,14,32,18.70
2020,09,07,14,33,24.70
2020,09,07,14,34,28.60
2020,09,07,14,35,23.90
2020,09,07,14,36,17.40
2020,09,07,14,37,17.00
2020,09,07,14,38,17.60
2020,09,07,14,39,23.30
2020,09,07,14,40,28.80
2020,09,07,14,41,19.10
2020,09,07,14,42,11.70
2020,09,07,14,43,12.70
2020,09,07,14,44,20.00
2020,09,07,14,45,24.20
2020,09,07,14,46,20.50
2020,09,07,14,47,15.40
2020,09,07,14,48,9.20
2020,09,07,14,49,22.50
2020,09,07,14,50,18.00
2020,09,07,14,51,20.50
2020,09,07,14,52,25.60
2020,09,07,14,53,13.20
2020,09,07,14,54,17.20
2020,09,07,14,55,16.80
2020,09,07,14,56,15.50
2020,09,07,14,57,17.90
2020,09,07,14,58,22.90
2020,09,07,14,59,16.80
2020,09,07,15,00,15.60
2020,09,07,15,01,11.10
2020,09,07,15,02,7.80
2020,09,07,15,03,6.20
2020,09,07,15,04,14.40
2020,09,07,15,05,14.60
2020,09,07,15,06,13.10
2020,09,07,15,07,22.00
2020,09,07,15,08,18.80
2020,09,07,15,09,23.00
2020,09,07,15,10,22.90
2020,09,07,15,11,26.30
2020,09,07,15,12,19.30
2020,09,07,15,13,22.20
2020,09,07,15,14,24.40
2020,09,07,15,15,25.30
2020,09,07,15,16,21.20
2020,09,07,15,17,12.20
2020,09,07,15,18,19.80
2020,09,07,15,19,23.50
2020,09,07,15,20,27.60
2020,09,07,15,21,26.50
2020,09,07,15,22,29.40
2020,09,07,15,23,34.40
2020,09,07,15,24,22.40
2020,09,07,15,25,23.40
2020,09,07,15,26,21.40
2020,09,07,15,27,6.40
2020,09,07,15,28,6.40
2020,09,07,15,29,28.60
2020,09,07,15,30,17.80
2020,09,07,15,31,14.60
2020,09,07,15,32,24.60
2020,09,07,15,33,22.50
2020,09,07,15,34,17.40
2020,09,07,15,35,12.80
2020,09,07,15,36,21.10
2020,09,07,15,37,16.20
2020,09,07,15,38,14.00
2020,09,07,15,39,7.80
2020,09,07,15,40,14.00
2020,09,07,15,41,7.10
2020,09,07,15,42,6.40
2020,09,07,15,43,9.40
2020,09,07,15,44,16.30
2020,09,07,15,45,13.40
2020,09,07,15,46,11.60
2020,09,07,15,47,18.40
2020,09,07,15,48,12.80
2020,09,07,15,49,4.30
2020,09,07,15,50,13.50
2020,09,07,15,51,21.60
2020,09,07,15,52,19.40
2020,09,07,15,53,15.10
2020,09,07,15,54,19.20
2020,09,07,15,55,17.70
2020,09,07,15,56,11.90
2020,09,07,15,57,4.60
2020,09,07,15,58,19.50
2020,09,07,15,59,19.40
2020,09,07,16,00,20.00
2020,09,07,16,01,10.10
2020,09,07,16,02,21.10
2020,09,07,16,03,28.80
2020,09,07,16,04,17.40
2020,09,07,16,05,22.50
2020,09,07,16,06,20.20
2020,09,07,16,07,15.60
2020,09,07,16,08,18.70
2020,09,07,16,09,19.40
2020,09,07,16,10,23.40
2020,09,07,16,11,18.30
2020,09,07,16,12,20.60
2020,09,07,16,13,27.60
2020,09,07,16,14,24.10
2020,09,07,16,15,20.50
2020,09,07,16,16,10.70
2020,09,07,16,17,13.20
2020,09,07,16,18,12.40
2020,09,07,16,19,12.90
2020,09,07,16,20,16.70
2020,09,07,16,21,20.80
2020,09,07,16,22,17.50
2020,09,07,16,23,13.90
2020,09,07,16,24,9.40
2020,09,07,16,25,15.70
2020,09,07,16,26,12.10
2020,09,07,16,27,15.10
2020,09,07,16,28,9.40
2020,09,07,16,29,20.60
2020,09,07,16,30,23.50
2020,09,07,16,31,21.20
2020,09,07,16,32,21.50
2020,09,07,16,33,4.40
2020,09,07,16,34,7.30
2020,09,07,16,35,7.60
2020,09,07,16,36,12.90
2020,09,07,16,37,23.20
2020,09,07,16,38,28.70
2020,09,07,16,39,20.30
2020,09,07,16,40,21.80
2020,09,07,16,41,26.20
2020,09,07,16,42,27.40
2020,09,07,16,43,22.20
2020,09,07,16,44,14.60
2020,09,07,16,45,11.90
2020,09,07,16,46,13.40
2020,09,07,16,47,22.80
2020,09,07,16,48,20.20
2020,09,07,16,49,24.00
2020,09,07,16,50,12.40
2020,09,07,16,51,20.00
2020,09,07,16,52,13.90
2020,09,07,16,53,23.50
2020,09,07,16,54,29.00
2020,09,07,16,55,20.00
2020,09,07,16,56,30.40
2020,09,07,16,57,24.90
2020,09,07,16,58,33.70
2020,09,07,16,59,16.70
2020,09,07,17,00,21.20
2020,09,07,17,01,12.20
2020,09,07,17,02,10.80
2020,09,07,17,03,13.80
2020,09,07,17,04,12.40
2020,09,07,17,05,11.90
2020,09,07,17,06,11.60
2020,09,07,17,07,13.90
2020,09,07,17,08,24.10
2020,09,07,17,09,21.80
2020,09,07,17,10,11.60
2020,09,07,17,11,15.20
2020,09,07,17,12,10.90
2020,09,07,17,13,11.70
2020,09,07,17,14,12.20
2020,09,07,17,15,18.40
2020,09,07,17,16,27.80
2020,09,07,17,17,17.70
2020,09,07,17,18,12.90
2020,09,07,17,19,15.30
2020,09,07,17,20,11.50
2020,09,07,17,21,18.50
2020,09,07,17,22,19.80
2020,09,07,17,23,13.10
2020,09,07,17,24,10.20
2020,09,07,17,25,15.00
2020,09,07,17,26,12.70
2020,09,07,17,27,25.20
2020,09,07,17,28,15.90
2020,09,07,17,29,15.10
2020,09,07,17,30,16.90
2020,09,07,17,31,14.20
2020,09,07,17,32,9.70
2020,09,07,17,33,12.80
2020,09,07,17,34,11.00
2020,09,07,17,35,22.10
2020,09,07,17,36,16.00
2020,09,07,17,37,11.60
2020,09,07,17,38,16.90
2020,09,07,17,39,14.50
2020,09,07,17,40,13.90
2020,09,07,17,41,16.70
2020,09,07,17,42,11.00
2020,09,07,17,43,19.90
2020,09,07,17,44,19.70
2020,09,07,17,45,17.30
2020,09,07,17,46,16.70
2020,09,07,17,47,12.30